Time,TemperatureF,DewpointF,PressureIn,WindDirection,WindDirectionDegrees,WindSpeedMPH,WindSpeedGustMPH,Humidity,HourlyPrecipIn,Conditions,Clouds,dailyrainin,SoftwareType,DateUTC
2013-02-14 00:07:00,30.1,28.0,29.94,NW,304,0.0,-999.0,92,-99.99,,,0.01,weatherlink.com 1.10,2013-02-14 05:07:00,
2013-02-14 00:22:00,30.2,28.0,29.94,NW,304,0.0,-999.0,92,-99.99,,,0.01,weatherlink.com 1.10,2013-02-14 05:22:00,
2013-02-14 00:37:00,32.0,31.0,29.95,WNW,292,0.0,-999.0,94,-99.99,,,0.01,weatherlink.com 1.10,2013-02-14 05:37:00,
2013-02-14 00:52:00,32.5,31.0,29.95,WNW,292,0.0,-999.0,93,-99.99,,,0.01,weatherlink.com 1.10,2013-02-14 05:52:00,
2013-02-14 01:07:00,33.0,31.0,29.95,West,273,1.0,-999.0,93,-99.99,,,0.01,weatherlink.com 1.10,2013-02-14 06:07:00,
2013-02-14 01:22:00,33.4,31.0,29.95,West,273,0.0,-999.0,92,-99.99,,,0.00,weatherlink.com 1.10,2013-02-14 06:22:00,
2013-02-14 01:37:00,33.6,32.0,29.95,West,273,0.0,-999.0,92,-99.99,,,0.00,weatherlink.com 1.10,2013-02-14 06:37:00,
2013-02-14 01:52:00,33.1,31.0,29.95,West,273,0.0,-999.0,91,-99.99,,,0.00,weatherlink.com 1.10,2013-02-14 06:52:00,
2013-02-14 02:07:00,32.3,30.0,29.95,West,273,0.0,-999.0,90,-99.99,,,0.00,weatherlink.com 1.10,2013-02-14 07:07:00,
2013-02-14 02:22:00,31.4,29.0,29.95,West,273,0.0,-999.0,90,-99.99,,,0.00,weatherlink.com 1.10,2013-02-14 07:22:00,
2013-02-14 02:37:00,30.3,28.0,29.95,West,273,0.0,-999.0,90,-99.99,,,0.00,weatherlink.com 1.10,2013-02-14 07:37:00,
2013-02-14 02:52:00,29.7,27.0,29.95,West,273,0.0,-999.0,91,-99.99,,,0.00,weatherlink.com 1.10,2013-02-14 07:52:00,
2013-02-14 03:07:00,28.9,27.0,29.95,West,273,0.0,-999.0,91,-99.99,,,0.00,weatherlink.com 1.10,2013-02-14 08:07:00,
2013-02-14 03:22:00,28.1,26.0,29.95,West,273,0.0,-999.0,91,-99.99,,,0.00,weatherlink.com 1.10,2013-02-14 08:22:00,
2013-02-14 03:37:00,27.6,25.0,29.95,West,273,0.0,-999.0,91,-99.99,,,0.00,weatherlink.com 1.10,2013-02-14 08:37:00,
2013-02-14 03:53:00,27.3,25.0,29.95,West,273,0.0,-999.0,91,-99.99,,,0.00,weatherlink.com 1.10,2013-02-14 08:53:00,
2013-02-14 04:07:00,27.6,26.0,29.95,West,273,0.0,-999.0,92,-99.99,,,0.00,weatherlink.com 1.10,2013-02-14 09:07:00,
2013-02-14 04:23:00,28.4,27.0,29.95,West,273,0.0,-999.0,93,-99.99,,,0.00,weatherlink.com 1.10,2013-02-14 09:23:00,
2013-02-14 04:37:00,27.8,26.0,29.96,West,273,0.0,-999.0,92,-99.99,,,0.00,weatherlink.com 1.10,2013-02-14 09:37:00,
2013-02-14 04:52:00,28.0,26.0,29.96,West,273,0.0,-999.0,92,-99.99,,,0.00,weatherlink.com 1.10,2013-02-14 09:52:00,
2013-02-14 05:07:00,28.3,26.0,29.96,West,273,0.0,-999.0,92,-99.99,,,0.00,weatherlink.com 1.10,2013-02-14 10:07:00,
2013-02-14 05:22:00,28.3,26.0,29.96,West,273,0.0,-999.0,92,-99.99,,,0.00,weatherlink.com 1.10,2013-02-14 10:22:00,
2013-02-14 05:37:00,28.7,27.0,29.95,West,273,0.0,-999.0,93,-99.99,,,0.00,weatherlink.com 1.10,2013-02-14 10:37:00,
2013-02-14 05:52:00,28.8,27.0,29.95,West,273,0.0,-999.0,93,-99.99,,,0.00,weatherlink.com 1.10,2013-02-14 10:52:00,
2013-02-14 06:08:00,28.8,27.0,29.96,West,273,0.0,-999.0,93,-99.99,,,0.00,weatherlink.com 1.10,2013-02-14 11:08:00,
2013-02-14 06:22:00,28.6,27.0,29.96,West,273,0.0,-999.0,92,-99.99,,,0.00,weatherlink.com 1.10,2013-02-14 11:22:00,
2013-02-14 06:37:00,29.6,28.0,29.96,West,273,0.0,-999.0,93,-99.99,,,0.00,weatherlink.com 1.10,2013-02-14 11:37:00,
2013-02-14 06:52:00,30.6,29.0,29.96,West,273,0.0,-999.0,93,-99.99,,,0.00,weatherlink.com 1.10,2013-02-14 11:52:00,
2013-02-14 07:07:00,30.8,29.0,29.96,West,273,0.0,-999.0,93,-99.99,,,0.00,weatherlink.com 1.10,2013-02-14 12:07:00,
2013-02-14 07:22:00,30.7,29.0,29.95,West,273,0.0,-999.0,93,-99.99,,,0.00,weatherlink.com 1.10,2013-02-14 12:22:00,
2013-02-14 07:38:00,30.3,29.0,29.95,West,273,0.0,-999.0,93,-99.99,,,0.00,weatherlink.com 1.10,2013-02-14 12:38:00,
2013-02-14 07:53:00,29.9,28.0,29.95,West,273,0.0,-999.0,92,-99.99,,,0.00,weatherlink.com 1.10,2013-02-14 12:53:00,
2013-02-14 08:08:00,29.9,28.0,29.95,West,273,0.0,-999.0,93,-99.99,,,0.00,weatherlink.com 1.10,2013-02-14 13:08:00,
2013-02-14 08:23:00,31.2,30.0,29.95,West,273,0.0,-999.0,94,-99.99,,,0.00,weatherlink.com 1.10,2013-02-14 13:23:00,
2013-02-14 08:38:00,32.8,31.0,29.96,West,273,0.0,-999.0,94,-99.99,,,0.00,weatherlink.com 1.10,2013-02-14 13:38:00,
2013-02-14 08:53:00,34.8,33.0,29.95,West,273,0.0,-999.0,94,-99.99,,,0.00,weatherlink.com 1.10,2013-02-14 13:53:00,
2013-02-14 09:08:00,37.1,36.0,29.96,SSW,211,0.0,-999.0,94,-99.99,,,0.00,weatherlink.com 1.10,2013-02-14 14:08:00,
2013-02-14 09:23:00,39.1,36.0,29.97,SSW,194,2.0,-999.0,89,-99.99,,,0.00,weatherlink.com 1.10,2013-02-14 14:23:00,
2013-02-14 09:38:00,40.5,37.0,29.97,SW,236,4.0,-999.0,86,-99.99,,,0.00,weatherlink.com 1.10,2013-02-14 14:38:00,
2013-02-14 09:53:00,40.5,36.0,29.98,SW,235,4.0,-999.0,83,-99.99,,,0.00,weatherlink.com 1.10,2013-02-14 14:53:00,
2013-02-14 10:08:00,41.1,36.0,29.97,WSW,242,10.0,-999.0,82,-99.99,,,0.00,weatherlink.com 1.10,2013-02-14 15:08:00,
2013-02-14 10:23:00,41.9,36.0,29.98,SW,219,9.0,-999.0,80,-99.99,,,0.00,weatherlink.com 1.10,2013-02-14 15:23:00,
2013-02-14 10:38:00,42.4,37.0,29.98,WSW,254,4.0,-999.0,80,-99.99,,,0.00,weatherlink.com 1.10,2013-02-14 15:38:00,
2013-02-14 10:53:00,42.7,37.0,29.98,WSW,245,5.0,-999.0,79,-99.99,,,0.00,weatherlink.com 1.10,2013-02-14 15:53:00,
2013-02-14 11:08:00,43.3,37.0,29.98,SSW,198,5.0,-999.0,78,-99.99,,,0.00,weatherlink.com 1.10,2013-02-14 16:08:00,
2013-02-14 11:23:00,44.7,38.0,29.96,WSW,245,6.0,-999.0,77,-99.99,,,0.00,weatherlink.com 1.10,2013-02-14 16:23:00,
2013-02-14 11:38:00,45.6,38.0,29.96,WSW,255,14.0,-999.0,76,-99.99,,,0.00,weatherlink.com 1.10,2013-02-14 16:38:00,
2013-02-14 11:53:00,46.6,38.0,29.96,SSW,198,8.0,-999.0,72,-99.99,,,0.00,weatherlink.com 1.10,2013-02-14 16:53:00,
2013-02-14 12:08:00,47.1,38.0,29.95,SSW,199,7.0,-999.0,70,-99.99,,,0.00,weatherlink.com 1.10,2013-02-14 17:08:00,
2013-02-14 12:23:00,48.2,38.0,29.94,SSW,196,8.0,-999.0,67,-99.99,,,0.00,weatherlink.com 1.10,2013-02-14 17:23:00,
2013-02-14 12:38:00,49.0,38.0,29.93,SW,225,1.0,-999.0,66,-99.99,,,0.00,weatherlink.com 1.10,2013-02-14 17:38:00,
2013-02-14 12:53:00,51.1,38.0,29.93,WSW,238,7.0,-999.0,62,-99.99,,,0.00,weatherlink.com 1.10,2013-02-14 17:53:00,
2013-02-14 13:09:00,51.1,37.0,29.92,SW,235,7.0,-999.0,59,-99.99,,,0.00,weatherlink.com 1.10,2013-02-14 18:09:00,
2013-02-14 13:24:00,51.8,38.0,29.92,West,260,5.0,-999.0,59,-99.99,,,0.00,weatherlink.com 1.10,2013-02-14 18:24:00,
2013-02-14 13:39:00,52.4,38.0,29.91,WSW,240,8.0,-999.0,59,-99.99,,,0.00,weatherlink.com 1.10,2013-02-14 18:39:00,
2013-02-14 13:54:00,52.9,37.0,29.90,SSW,209,11.0,-999.0,55,-99.99,,,0.00,weatherlink.com 1.10,2013-02-14 18:54:00,
2013-02-14 14:09:00,53.2,37.0,29.89,WSW,252,9.0,-999.0,55,-99.99,,,0.00,weatherlink.com 1.10,2013-02-14 19:09:00,
2013-02-14 14:24:00,54.3,37.0,29.89,SW,220,13.0,-999.0,53,-99.99,,,0.00,weatherlink.com 1.10,2013-02-14 19:24:00,
2013-02-14 14:39:00,54.3,36.0,29.89,WSW,244,3.0,-999.0,51,-99.99,,,0.00,weatherlink.com 1.10,2013-02-14 19:39:00,
2013-02-14 14:54:00,54.7,36.0,29.89,SSW,212,8.0,-999.0,50,-99.99,,,0.00,weatherlink.com 1.10,2013-02-14 19:54:00,
2013-02-14 15:09:00,55.1,36.0,29.89,SSW,200,11.0,-999.0,49,-99.99,,,0.00,weatherlink.com 1.10,2013-02-14 20:09:00,
2013-02-14 15:24:00,55.4,35.0,29.88,West,264,5.0,-999.0,47,-99.99,,,0.00,weatherlink.com 1.10,2013-02-14 20:24:00,
2013-02-14 15:39:00,56.2,35.0,29.88,SSW,210,11.0,-999.0,46,-99.99,,,0.00,weatherlink.com 1.10,2013-02-14 20:39:00,
2013-02-14 15:54:00,56.1,36.0,29.89,West,264,5.0,-999.0,47,-99.99,,,0.00,weatherlink.com 1.10,2013-02-14 20:54:00,
2013-02-14 16:09:00,56.1,35.0,29.89,WSW,243,6.0,-999.0,46,-99.99,,,0.00,weatherlink.com 1.10,2013-02-14 21:09:00,
2013-02-14 16:24:00,56.6,35.0,29.89,WSW,258,8.0,-999.0,45,-99.99,,,0.00,weatherlink.com 1.10,2013-02-14 21:24:00,
2013-02-14 16:39:00,56.1,34.0,29.89,WSW,242,6.0,-999.0,43,-99.99,,,0.00,weatherlink.com 1.10,2013-02-14 21:39:00,
2013-02-14 16:54:00,56.1,33.0,29.89,West,261,9.0,-999.0,42,-99.99,,,0.00,weatherlink.com 1.10,2013-02-14 21:54:00,
2013-02-14 17:09:00,55.8,34.0,29.90,WSW,246,8.0,-999.0,44,-99.99,,,0.00,weatherlink.com 1.10,2013-02-14 22:09:00,
2013-02-14 17:24:00,56.1,35.0,29.90,WNW,288,10.0,-999.0,45,-99.99,,,0.00,weatherlink.com 1.10,2013-02-14 22:24:00,
2013-02-14 17:39:00,55.6,34.0,29.91,WSW,254,6.0,-999.0,45,-99.99,,,0.00,weatherlink.com 1.10,2013-02-14 22:39:00,
2013-02-14 17:54:00,55.0,34.0,29.91,West,262,8.0,-999.0,46,-99.99,,,0.00,weatherlink.com 1.10,2013-02-14 22:54:00,
2013-02-14 18:09:00,53.9,34.0,29.91,West,265,0.0,-999.0,48,-99.99,,,0.00,weatherlink.com 1.10,2013-02-14 23:09:00,
2013-02-14 18:24:00,52.8,34.0,29.92,WSW,250,1.0,-999.0,50,-99.99,,,0.00,weatherlink.com 1.10,2013-02-14 23:24:00,
2013-02-14 18:39:00,52.0,35.0,29.93,WSW,250,0.0,-999.0,52,-99.99,,,0.00,weatherlink.com 1.10,2013-02-14 23:39:00,
2013-02-14 18:54:00,50.2,34.0,29.93,WSW,250,2.0,-999.0,55,-99.99,,,0.00,weatherlink.com 1.10,2013-02-14 23:54:00,
2013-02-14 19:09:00,50.6,35.0,29.93,WSW,250,1.0,-999.0,55,-99.99,,,0.00,weatherlink.com 1.10,2013-02-15 00:09:00,
2013-02-14 19:24:00,50.3,35.0,29.94,WSW,250,0.0,-999.0,56,-99.99,,,0.00,weatherlink.com 1.10,2013-02-15 00:24:00,
2013-02-14 19:39:00,49.0,35.0,29.94,WSW,250,0.0,-999.0,58,-99.99,,,0.00,weatherlink.com 1.10,2013-02-15 00:39:00,
2013-02-14 19:55:00,47.2,35.0,29.94,WSW,250,0.0,-999.0,62,-99.99,,,0.00,weatherlink.com 1.10,2013-02-15 00:55:00,
2013-02-14 20:09:00,46.3,35.0,29.94,WSW,250,0.0,-999.0,65,-99.99,,,0.00,weatherlink.com 1.10,2013-02-15 01:09:00,
2013-02-14 20:24:00,45.7,34.0,29.94,WSW,250,0.0,-999.0,65,-99.99,,,0.00,weatherlink.com 1.10,2013-02-15 01:24:00,
2013-02-14 20:40:00,44.4,34.0,29.94,WSW,250,0.0,-999.0,68,-99.99,,,0.00,weatherlink.com 1.10,2013-02-15 01:40:00,
2013-02-14 20:54:00,43.8,35.0,29.94,WSW,250,0.0,-999.0,70,-99.99,,,0.00,weatherlink.com 1.10,2013-02-15 01:54:00,
2013-02-14 21:09:00,43.4,35.0,29.94,WSW,250,0.0,-999.0,71,-99.99,,,0.00,weatherlink.com 1.10,2013-02-15 02:09:00,
2013-02-14 21:24:00,43.1,34.0,29.95,WSW,250,0.0,-999.0,71,-99.99,,,0.00,weatherlink.com 1.10,2013-02-15 02:24:00,
2013-02-14 21:39:00,42.1,34.0,29.95,WSW,250,0.0,-999.0,73,-99.99,,,0.00,weatherlink.com 1.10,2013-02-15 02:39:00,
2013-02-14 21:54:00,41.2,34.0,29.95,WSW,250,0.0,-999.0,74,-99.99,,,0.00,weatherlink.com 1.10,2013-02-15 02:54:00,
2013-02-14 22:09:00,40.5,34.0,29.96,WSW,250,0.0,-999.0,76,-99.99,,,0.00,weatherlink.com 1.10,2013-02-15 03:09:00,
2013-02-14 22:24:00,40.7,34.0,29.96,WSW,250,0.0,-999.0,76,-99.99,,,0.00,weatherlink.com 1.10,2013-02-15 03:24:00,
2013-02-14 22:39:00,40.2,33.0,29.96,WSW,250,0.0,-999.0,75,-99.99,,,0.00,weatherlink.com 1.10,2013-02-15 03:39:00,
2013-02-14 22:54:00,39.3,33.0,29.96,WSW,250,0.0,-999.0,77,-99.99,,,0.00,weatherlink.com 1.10,2013-02-15 03:54:00,
2013-02-14 23:09:00,38.8,33.0,29.96,WSW,250,0.0,-999.0,79,-99.99,,,0.00,weatherlink.com 1.10,2013-02-15 04:09:00,
2013-02-14 23:25:00,38.4,33.0,29.96,WSW,250,0.0,-999.0,80,-99.99,,,0.00,weatherlink.com 1.10,2013-02-15 04:25:00,
2013-02-14 23:39:00,38.3,32.0,29.95,WSW,250,0.0,-999.0,79,-99.99,,,0.00,weatherlink.com 1.10,2013-02-15 04:39:00,
2013-02-14 23:54:00,38.2,33.0,29.96,WSW,250,0.0,-999.0,80,-99.99,,,0.00,weatherlink.com 1.10,2013-02-15 04:54:00,